www.pogodaiklimat.ru

Погода и климат >> Архив погоды >> Россия >> Хабаровский край >> Троицкое


ПОГОДА в Троицком

  • Прогноз погоды в Троицком
  • Монитор погоды в Троицком

АРХИВ ПОГОДЫ в Троицком

Время (UTC), дата Ветер
(напр.,м/с)
 
Видим.   Явления Облачность Т
(С)
Тd
(С)
f
(%)
Тe
(С)
Тes
(С)
Комфортность P
(гПа)
Po
(гПа)
Тmin
(С)
Tmax
(С)
R
(мм)
R24
(мм)
S
(см)
18 19.05 С 1 50 км {ливн. осадки} 10/10 600 м
[Cb cap]
+12.1 +9.1 82 +12 +12 1002.6 998.6
21 19.05 В 2 50 км слаб. ливневой дождь 10/10 600 м
[Cb cap]
+11.3 +9.7 90 +10 +10 1000.3 996.4 +11.0 4
00 20.05 В 2 2000 м слаб. ливневой дождь 10/10 600 м
[Cb cap]
+12.5 +11.2 92 +12 +12 999.0 995.1
03 20.05 В 2 2000 м слаб. ливневой дождь 10/10 600 м
[Cb cap]
+13.5 +12.3 92 +13 +13 997.1 993.2
06 20.05 В 1 2000 м слаб. ливневой дождь 10/10 600 м
[Cb cap]
+14.3 +13.1 92 +15 +15 995.0 991.2
09 20.05 В 1 2000 м слаб. ливневой дождь 10/10 600 м
[Cb calv]
+14.5 +13.4 93 +15 +15 994.3 990.4 +14.7 26
12 20.05 В 1 2000 м слаб. ливневой дождь 10/10 600 м
[Cb calv]
+13.8 +12.7 93 +14 +14 993.4 989.5
15 20.05 ЮВ 2 2000 м {ливн. осадки} 10/10 600 м
[Cb calv]
+14.4 +12.4 88 +14 +14 992.3 988.4
18 20.05 ЮВ 2 2000 м слаб. ливневой дождь 10/10 600 м
[Cb calv]
+13.5 +11.7 89 +13 +13 991.1 987.3
21 20.05 Ю 3 2000 м {ливн. осадки} 10/10 600 м
[Cb calv]
+12.8 +11.2 90 +11 +11 992.2 988.3 +12.8 6
00 21.05 Ю 3 20 км {ливн. осадки} 8/8 600 м
[Cb cap]
+14.9 +11.0 77 +14 +16 992.3 988.4 +12.4
03 21.05 З 2 2000 м слаб. ливневой дождь 10/10 600 м
[Cb cap]
+14.0 +11.4 84 +13 +13 992.1 988.2
06 21.05 СЗ 2 50 км {ливн. осадки} 6/6 600 м
[Cb cap]
+18.5 +8.9 54 +19 +24 990.8 987.0
09 21.05 СЗ 1 20 км 3/3 600 м
[Cb cap]
+18.9 +8.8 52 +21 +22 комфорт 991.1 987.3 +20.0 4
12 21.05 Ю 1 20 км 9/9 600 м
[Cb cap]
+13.4 +11.1 86 +14 +14 992.5 988.6
15 21.05 Ю 2 20 км 10/10 600 м
[Cb cap]
+11.3 +9.9 91 +10 +10 992.6 988.7
18 21.05 Ю 3 20 км гроза без осадков 10/10 600 м
[Cb cap]
+11.0 +8.7 86 +9 +9 993.2 989.3
21 21.05 Ю 4 10 км слаб. ливневой дождь {гроза} 10/10 600 м
[Cb cap]
+10.4 +8.9 90 +8 +8 994.1 990.1 +10.2 2
00 22.05 Ю 4 50 км {ливн. осадки} 9/9 600 м
[Cb cap]
+13.6 +9.3 75 +12 +13 994.7 990.9
03 22.05 ЮВ 1 50 км 8/8 600 м
[Cb cap]
+15.2 +9.9 71 +16 +20 994.3 990.5
06 22.05 З 2 50 км 8/8 600 м
[Cb cap]
+17.6 +8.0 53 +18 +20 994.0 990.2
09 22.05 ЮВ 2 20 км слаб. ливневой дождь 10/10 600 м
[Cb cap]
+11.6 +10.0 90 +10 +10 995.3 991.4 +17.6 0.7
12 22.05 ЮЗ 2 50 км {ливн. осадки} 10/10 600 м
[Cb cap]
+10.9 +8.9 87 +10 +10 996.7 992.8
15 22.05 Ю 2 50 км 10/10 600 м
[Cb cap]
+10.2 +8.6 90 +9 +9 997.5 993.6
18 22.05 Ю 2 н/о +9.7 +8.3 91 +8 +8 998.3 994.4
21 22.05 ЮЗ 3 50 км 9/9 600 м
[Cb cap]
+10.2 +8.6 90 +8 +8 999.8 995.8 +9.3 0.0
00 23.05 Ю 5 50 км 8/8 600 м
[Cb calv]
+14.1 +9.8 75 +12 +14 1000.5 996.6
03 23.05 ЮЗ 3 50 км 8/8 600 м
[Cb calv]
+17.2 +8.3 56 +17 +20 1000.4 996.5
06 23.05 ЮЗ 5
{11}
50 км 8/8 600 м
[Cb calv]
+19.3 +8.4 49 +20 +21 999.8 996.0
09 23.05 ЮЗ 4 50 км 6/6 600 м
[Cb calv]
+18.5 +7.1 47 +19 +19 999.7 995.9 +19.9
12 23.05 ЮЗ 4 50 км 6/4 600 м
[Cb calv Ci fib]
+15.6 +8.7 63 +15 +15 1001.3 997.4
15 23.05 ЮЗ 4 н/о н/о +14.2 +9.3 72 +13 +13 1001.8 997.8
18 23.05 Ю 4 н/о н/о +11.8 +9.1 84 +10 +10 1001.9 997.9
21 23.05 Ю 4 50 км 4/3 600 м
[Cb cap Ci fib]
+12.1 +9.2 82 +10 +11 1003.0 999.1 +11.1
00 24.05 ЮЗ 4 50 км 4/3 600 м
[Cb calv Ci fib]
+16.6 +10.1 65 +16 +21 1003.4 999.5
03 24.05 Ю 4 50 км 8/8 600 м
[Cu Sc]
+18.6 +10.5 59 +19 +21 1002.6 998.7
06 24.05 ЮЗ 4 50 км 8/8 600 м
[Sc diur, vesp]
+19.7 +9.7 52 +21 +22 комфорт 1000.8 997.0
09 24.05 Ю 3 10 км слаб. ливневой дождь 10/10 600 м
[Cb calv]
+17.9 +10.6 62 +18 +18 999.9 996.1 +21.1 2
12 24.05 Ю 3 50 км 10/10 600 м
[Cb calv]
+15.8 +9.6 67 +15 +15 1000.0 996.1
15 24.05 Ю 4 50 км 6/6 600 м
[Sc diur, vesp]
+15.6 +8.3 62 +15 +15 998.4 994.5
18 24.05 СВ 1 50 км 6/6 600 м
[Sc diur, vesp]
+14.2 +8.8 70 +15 +15 997.2 993.3
21 24.05 ЮЗ 1 50 км 3/0
[Ci fib]
+15.4 +10.4 72 +16 +18 997.5 993.7 +12.2
00 25.05 ЮЗ 1 50 км 10/10 600 м
[Cb cap]
+18.9 +9.7 55 +21 +21 комфорт 997.3 993.5
03 25.05 З 2 50 км 6/4 600 м
[Cb cap Ci fib]
+22.9 +12.9 53 +26 +36 жарко 997.4 993.6
06 25.05 ЮЗ 3 50 км 6/4 600 м
[Cb cap Ci fib]
+26.9 +12.4 41 +28 +33 жарко 996.1 992.4
09 25.05 ЮЗ 4-10
{10}
20 км ясно +26.6 +13.5 44 +29 +30 жарко 995.2 991.5 +28.0
12 25.05 ЮЗ 2
{10}
20 км ясно +22.3 +14.5 61 +26 +26 жарко 998.1 994.3
15 25.05 СВ 4 20 км 10/0
[Ci sp]
+16.2 +11.8 75 +15 +15 1000.5 996.6
18 25.05 СВ 5
{10}
20 км 10/0
[Ci sp]
+14.2 +10.9 81 +12 +12 1003.0 999.1
21 25.05 СВ 2
{10}
50 км 3/0
[Ci fib]
+12.4 +9.1 80 +12 +13 1006.3 1002.3 +12.3
00 26.05 СВ 4 50 км 8/6 600 м
[Sc Ci]
+14.5 +7.9 65 +13 +16 1008.2 1004.3
03 26.05 СВ 3 50 км 10/6 600 м
[Cb cap Ci]
+16.2 +7.0 54 +16 +21 1009.3 1005.4
06 26.05 СВ 2 50 км 10/4 600 м
[Cb cap Ci]
+17.8 +8.8 56 +18 +24 1009.6 1005.7
09 26.05 СВ 1 50 км 10/3 1000 м
[Sc Ci]
+16.8 +9.1 60 +18 +19 1009.5 1005.6 +18.5
12 26.05 С 1 50 км 10/6 600 м
[Cb cap Ci sp]
+14.1 +9.5 74 +14 +14 1009.6 1005.6
15 26.05 С 1 50 км 10/6 600 м
[Cb cap Ci sp]
+13.5 +9.4 76 +14 +14 1008.7 1004.8

 

Местоположение метеостанции Троицкое (Хабаровский край, Россия): широта 49.45 долгота 136.56 высота над уровнем моря 37 м.

В архиве по умолчанию представлена погода в Троицком за последнюю неделю. Архивные данные за месяц целиком и за предыдущие месяцы, начиная с января 2011 года, Вы можете получить, выбрав интересующий диапазон дат из раскрывающегося списка и нажав кнопку "Ввод!".


*Определитесь, кто Вы:
робот инопланетянин человек

Внимание! Время в таблицах - всемирное. Для получения местного времени необходимо прибавить поправку, которая равна 10 ч.

Смотрите также архив погоды в соседних городах и на ближайших метеорологических станциях:

Погода в Елабуге (Хабаровский край, Россия) (89 км)
Погода в Тивяку (Хабаровский край, Россия) (100 км)
Погода в Амурске (Хабаровский край, Россия) (101 км)
Погода в Литовко (Хабаровский край, Россия) (109 км)
Погода в Солекуль (Хабаровский край, Россия) (109 км)
Погода в Комсомольске-на-Амуре (Хабаровский край, Россия) (124 км)
Погода в Князе-Волконском (Хабаровский край, Россия) (134 км)
Погода в Хабаровске 21 км (Хабаровский край, Россия) (140 км)
Погода в Хабаровске (Хабаровский край, Россия) (149 км)
Погода в Хабаровске Агромет (Хабаровский край, Россия) (149 км)

Пояснения к столбцам:

Ветер - указаны скорость ветра в м/с - средняя за 10 мин, порывы в срок и между сроками (в фигурных скобках) и направление, откуда дует ветер: С - северный, СВ - северо-восточный, В - восточный, ЮВ - юго-восточный, Ю - южный, ЮЗ - юго-западный, З - западный, СЗ - северо-западный.
Видимость - горизонтальная дальность видимости в метрах или километрах. При видимости от 1 до 10 км при отсутствии осадков обычно наблюдается дымка, при ухудшении видимости до 1 км и менее - туман. В сухую погоду видимость может ухудшаться дымом, пылью или мглою.
Явления - указаны атмосферные явления, наблюдавшиеся в срок или в последний час перед сроком; фигурными скобками обозначены явления, наблюдавшиеся между сроками (за 1-3 часа до срока); квадратными скобками обозначены град или гололедные отложения с указанием их диаметра в мм.
Облачность - указаны через наклонную черту общая и нижняя облачность в баллах и высота нижней границы облаков в метрах; квадратными скобками обозначены формы облаков: Ci - перистые, Cs - перисто-слоистые, Cc - перисто-кучевые, Ac - высококучевые, As - высокослоистые, Sc - слоисто-кучевые, Ns - слоисто-дождевые, Cu - кучевые, Cb - кучево-дождевые. Подробнее классификацию облаков см. в Атласе облаков (PDF).
T - Температура воздуха - температура, измеренная на высоте 2 м над землей.
Td - Температура точки росы - температура, при понижении до которой содержащийся в воздухе водяной пар достигнет насыщения.
f - Относительная влажность воздуха - влажноcть воздуха, измеренная на высоте 2 м над землей.
Te - Эффективная температура - температура, которую ощущает одетый по сезону человек в тени. Характеристика душности погоды. При расчете учитывается влияние влажности воздуха и скорости ветра на теплоощущения человека.
Tes - Эффективная температура на солнце - температура, которую ощущает человек, с поправкой на солнечный нагрев. Характеристика знойности погоды. Зависит от высоты солнца над горизонтом, облачности и скорости ветра. Ночью, в пасмурную погоду, а также при ветре 12 м/с и более поправка равна нулю.
P - Атмосферное давление - приведенное к уровню моря атмосферное давление.
Po - Атмосферное давление - измеренное на уровне метеостанции атмосферное давление.
Tmin - Минимальная температура - минимум температуры воздуха на высоте 2 м над землей.
Tmax - Максимальная температура - максимум температуры воздуха на высоте 2 м над землей.
R - Количество осадков - Количество выпавших осадков за период времени, мм. При наведении курсора мыши на число - период времени, за который выпало указанное количество осадков.
R24 - Количество осадков - Количество выпавших осадков за 24 часа, мм.
S - Снежный покров - Высота снежного покрова, см. При наведении курсора мыши на число - состояние снежного покрова и степень покрытия местности в баллах.